Tracking 17143 objects as of 30-June-2015
HD Live streaming from Space Station

GLOBALSTAR M003

Track GLOBALSTAR M003 now!
10-day predictions
GLOBALSTAR M003 is classified as:


NORAD ID: 25165
Int'l Code: 1998-008D
Perigee: 1,630.3 km
Apogee: 1,640.0 km
Inclination: 52.0 °
Period: 118.8 minutes
Semi major axis: 8006 km
RCS: 2.2435 m2 (large)
Launch date: February 14, 1998
Source: Globalstar (GLOB)
Your satellite tracking list
Your tracking list is empty





NASA's NSSDC Master Catalog

Two Line Element Set (TLE):
1 25165U 98008D   15181.16025483 -.00000193  00000-0 -11104-2 0  9993
2 25165 051.9804 170.9729 0006039 155.9280 283.1608 12.11899494791958

Source of the keplerian elements: AFSPC

N2YO: 302